EW5800 Weather Reports


Display with metric or nautical units.
time (UTC)temp
F
wind
direction
speed
MPH
gust
MPH
rain 1hr
in
rain 24hr
in
rain mn
in
humidity
%
barometer
mb
20260509011545 60 117 0.0 4.0 0.00 0.00 0.00 60 1020.3
20260509010046 61 196 0.0 4.0 0.00 0.00 0.00 58 1020.2
20260509004544 61 140 0.0 3.0 0.00 0.00 0.00 57 1020.1
20260509003045 62 200 0.0 3.0 0.00 0.00 0.00 56 1020.1
20260509001542 62 251 0.0 3.0 0.00 0.00 0.00 57 1020.2
20260509000040 63 174 0.0 4.0 0.00 0.00 0.00 56 1020.2
20260508234539 63 107 0.0 2.0 0.00 0.00 0.00 55 1020.1
20260508233039 64 132 0.0 0.0 0.00 0.00 0.00 55 1020.0
20260508231538 64 75 0.0 3.0 0.00 0.00 0.00 57 1020.0
20260508230151 63 124 0.0 2.0 0.00 0.00 0.00 55 1020.1
20260508224534 64 178 0.0 2.0 0.00 0.00 0.00 56 1019.8
20260508223039 63 174 0.0 0.0 0.00 0.00 0.00 57 1019.9
20260508221533 63 97 0.0 3.0 0.00 0.00 0.00 58 1019.9
20260508220034 63 131 0.0 3.0 0.00 0.00 0.00 57 1019.8
20260508214530 63 120 0.0 5.0 0.00 0.00 0.00 58 1019.6
20260508213027 61 55 0.0 6.0 0.00 0.00 0.00 62 1019.8
20260508211524 60 177 0.0 3.0 0.00 0.00 0.00 63 1019.7
20260508210022 59 33 0.0 2.0 0.00 0.00 0.00 65 1019.6
20260508204520 59 122 0.0 4.0 0.00 0.00 0.00 66 1019.4
20260508203040 59 146 0.0 3.0 0.00 0.00 0.00 65 1019.3
20260508201515 59 171 0.0 2.0 0.00 0.00 0.00 66 1019.2
20260508200021 59 59 0.0 3.0 0.00 0.00 0.00 66 1019.1
20260508194513 59 79 0.0 3.0 0.00 0.00 0.00 65 1019.0
20260508193010 59 77 0.0 3.0 0.00 0.00 0.00 67 1018.8
20260508191518 58 225 0.0 3.0 0.00 0.00 0.00 70 1018.7
20260508190118 57 113 1.0 6.0 0.00 0.00 0.00 70 1018.7
20260508184503 58 72 0.0 5.0 0.00 0.00 0.00 70 1018.5
20260508183001 57 182 0.0 4.0 0.00 0.00 0.00 71 1018.3
20260508181609 58 168 0.0 2.0 0.00 0.00 0.00 72 1018.2
20260508181533 58 146 0.0 2.0 0.00 0.00 0.00 72 1018.2
20260508180058 58 151 0.0 5.0 0.00 0.00 0.00 73 1017.8
20260508174550 58 170 0.0 4.0 0.00 0.00 0.00 73 1017.7
20260508173042 58 134 0.0 7.0 0.00 0.00 0.00 73 1017.6
20260508171519 60 205 0.0 5.0 0.00 0.00 0.00 70 1017.4
20260508170010 59 50 0.0 9.0 0.00 0.00 0.00 72 1017.0
20260508164506 58 143 0.0 5.0 0.00 0.00 0.00 74 1017.1
20260508163012 58 82 2.0 5.0 0.00 0.00 0.00 73 1017.1
20260508161503 58 49 0.0 6.0 0.00 0.00 0.00 74 1016.8
20260508160106 58 68 0.0 4.0 0.00 0.00 0.00 75 1016.7
20260508154605 58 80 0.0 3.0 0.00 0.00 0.00 75 1016.6
20260508153057 58 146 0.0 1.0 0.00 0.00 0.00 76 1016.7
20260508151555 57 75 0.0 3.0 0.00 0.00 0.00 78 1016.6
20260508150053 57 158 0.0 0.0 0.00 0.00 0.00 78 1016.5
20260508144551 57 163 0.0 0.0 0.00 0.00 0.00 78 1016.3
20260508143048 56 40 0.0 1.0 0.00 0.00 0.00 79 1016.1
20260508141610 56 71 0.0 0.0 0.00 0.00 0.00 79 1016.0
20260508140039 56 58 0.0 1.0 0.00 0.00 0.00 80 1015.9
20260508134552 56 43 0.0 1.0 0.00 0.00 0.00 82 1015.8
20260508133035 55 40 0.0 2.0 0.00 0.00 0.00 83 1015.6
20260508131547 55 57 0.0 1.0 0.00 0.00 0.00 84 1015.7
20260508130147 55 109 0.0 0.0 0.00 0.00 0.00 85 1015.6
20260508124532 55 109 0.0 0.0 0.00 0.00 0.00 85 1015.4
20260508123043 54 167 0.0 0.0 0.00 0.00 0.00 87 1015.4
20260508121531 54 167 0.0 0.0 0.00 0.00 0.00 87 1015.3
20260508120023 54 167 0.0 0.0 0.00 0.00 0.00 86 1015.3
20260508114539 54 167 0.0 0.0 0.00 0.00 0.00 86 1015.3
20260508113048 54 167 0.0 0.0 0.00 0.00 0.00 85 1015.2
20260508111534 55 167 0.0 0.0 0.00 0.00 0.00 84 1015.1
20260508110052 55 167 0.0 0.0 0.00 0.00 0.00 83 1015.2
20260508104530 55 167 0.0 0.0 0.00 0.00 0.00 83 1015.2
20260508103035 55 167 0.0 0.0 0.00 0.00 0.00 84 1015.1
20260508101532 55 167 0.0 0.0 0.00 0.00 0.00 84 1015.2
20260508094522 55 167 0.0 0.0 0.00 0.00 0.00 85 1015.0
20260508093145 55 167 0.0 0.0 0.00 0.00 0.00 83 1015.0
20260508091531 55 167 0.0 0.0 0.00 0.00 0.00 83 1014.9
20260508090024 55 167 0.0 0.0 0.00 0.00 0.00 84 1015.0
20260508084513 55 167 0.0 0.0 0.00 0.00 0.00 83 1015.1
20260508083011 55 167 0.0 0.0 0.00 0.00 0.00 83 1015.1
20260508081623 55 167 0.0 0.0 0.00 0.00 0.00 82 1015.2
20260508080013 55 167 0.0 0.0 0.00 0.00 0.00 81 1015.3
20260508074508 55 167 0.0 0.0 0.00 0.00 0.00 80 1015.4
20260508073005 55 167 0.0 0.0 0.00 0.00 0.00 80 1015.5
20260508071506 55 167 0.0 0.0 0.00 0.00 0.00 81 1015.5
20260508070001 55 167 0.0 0.0 0.00 0.00 0.00 81 1015.6
20260508064600 55 167 0.0 0.0 0.00 0.00 0.00 78 1015.7
20260508063059 56 167 0.0 0.0 0.00 0.00 0.00 76 1015.6
20260508061601 58 167 0.0 0.0 0.00 0.00 0.00 73 1015.6
20260508060100 58 167 0.0 0.0 0.00 0.00 0.00 71 1015.6
20260508054557 59 167 0.0 0.0 0.00 0.00 0.00 72 1015.5
20260508053057 59 204 0.0 0.0 0.00 0.00 0.00 73 1015.5
20260508051557 59 55 0.0 3.0 0.00 0.00 0.00 73 1015.4
20260508050057 59 162 0.0 0.0 0.00 0.00 0.00 73 1015.5
20260508044600 59 174 0.0 1.0 0.00 0.00 0.00 73 1015.5
20260508043106 59 63 0.0 1.0 0.00 0.00 0.00 72 1015.6
20260508041553 59 70 0.0 1.0 0.00 0.00 0.00 73 1015.7
20260508040053 60 129 0.0 1.0 0.00 0.00 0.00 73 1015.7
20260508034553 60 165 0.0 1.0 0.00 0.00 0.00 70 1015.5
20260508033052 61 203 0.0 2.0 0.00 0.00 0.00 68 1015.5
20260508031552 62 57 0.0 0.0 0.00 0.00 0.00 69 1015.3
20260508030052 63 205 0.0 2.0 0.00 0.00 0.00 68 1015.3
20260508024554 63 198 0.0 1.0 0.00 0.00 0.00 68 1015.3
20260508023050 62 251 0.0 0.0 0.00 0.00 0.00 68 1015.5
20260508021600 63 251 0.0 0.0 0.00 0.00 0.00 67 1015.4
20260508020047 63 250 0.0 0.0 0.00 0.00 0.00 66 1015.4
20260508014546 64 252 0.0 0.0 0.00 0.00 0.00 64 1015.5
20260508013044 64 233 0.0 1.0 0.00 0.00 0.00 63 1015.7